Regional Weather Roundup
Issued by NWS Cleveland, OH

Home | Current Version | Previous Version | Graphics & Text | Print | Product List | Glossary On
Versions: 1 2 3 4 5 6 7 8 9 10 11 12 13 14 15 16 17 18 19 20 21 22 23 24 25 26 27 28 29 30 31 32 33 34 35 36 37 38 39 40 41 42 43 44 45 46 47 48 49 50
000
ASUS41 KCLE 290810
RWRCLE
OHIO REGIONAL WEATHER ROUNDUP
NATIONAL WEATHER SERVICE CLEVELAND, OH
400 AM EDT FRI JUL 29 2016

NOTE: "FAIR" INDICATES FEW OR NO CLOUDS BELOW 12,000 FEET WITH NO
SIGNIFICANT WEATHER AND/OR OBSTRUCTIONS TO VISIBILITY.

OHZ001>008-015>018-024>027-034-035-043-044-290900-
   NORTHWEST OHIO

CITY           SKY/WX    TMP DP  RH WIND       PRES   REMARKS
DEFIANCE       CLOUDY    73  67  81 NE5       29.92R
FINDLAY        CLEAR     72  64  76 NE6       29.91S
TOLEDO EXPRESS PTCLDY    71  62  73 NE6       29.92S
TOLEDO EXEC    CLEAR     73  66  78 NE3       29.93S
LIMA           CLEAR     67  66  97 NE6       29.91F
$$

OHZ009>014-019>023-028>033-038-089-290900-
   NORTHEAST OHIO

CITY           SKY/WX    TMP DP  RH WIND       PRES   REMARKS
CLE-HOPKINS    MOCLDY    68  64  87 CALM      29.93S
CLE-LAKEFRONT  CLEAR     73  68  84 SE5       29.89S
CUY CO. ARPT   NOT AVBL
LORAIN-ELYRIA  CLEAR     63  61  93 CALM      29.92F
ASHTABULA      CLOUDY    65  65 100 CALM      29.93R
AKRON-CANTON   CLOUDY    70  67  90 SW3       29.93S FOG
WOOSTER        FOG       66  66 100 CALM      29.93S VSB 1/4
MANSFIELD      CLEAR     66  65  96 N3        29.93F
YOUNGSTOWN     CLOUDY    63  62  97 CALM      29.93R FOG
$$

OHZ042-051>053-060>062-070>072-077>081-290900-
  SOUTHWEST OHIO

CITY           SKY/WX    TMP DP  RH WIND       PRES   REMARKS
CINC-COVINGTON PTCLDY    73  72  96 W6        29.92R FOG
CINC-LUNKEN    CLOUDY    73  73 100 CALM      29.91S
HAMILTON       CLEAR     68  66  93 CALM      29.92S
DAYTON         PTCLDY    70  67  90 W5        29.92S
WRIGHT-PAT AFB CLEAR     70  70 100 SW5       29.91S
DAYTON GENERAL CLEAR     71  68  90 CALM      29.91S
WILMINGTON     FOG       69  69 100 S3        29.92S VSB 1/4
$$

OHZ036-037-039>041-045>050-054>059-063>069-073>076-082>088-290900-
  CENTRAL AND SOUTHEAST OHIO

CITY           SKY/WX    TMP DP  RH WIND       PRES   REMARKS
COLUMBUS       FOG       68  68 100 E3        29.91S VSB 3/4
OSU AIRPORT    FOG       66  66 100 CALM      29.91S VSB 1/4
BOLTON FIELD     N/A     65  65 100 CALM      29.92S VSB 1
RICKENBACK AFB PTCLDY    66  66 100 CALM      29.91S FOG
NEWARK         FOG       70  70 100 CALM      29.91F VSB 1/2
MARION         CLEAR     67  65  93 CALM      29.92F FOG
LANCASTER      CLEAR     66  66 100 CALM      29.92S
ZANESVILLE     FOG       73  71  93 CALM      29.92S VSB 1/2
NEW PHILLY     CLOUDY    72  69  90 CALM      29.93R
$$




USA.gov is the U.S. government's official web portal to all federal, state and local government web resources and services.